Tabellarische Ansicht des 17.10.2012


Die einzelnen Werte des Tages

Uhrzeit Temperatur Luftdruck Luftfeuchte Wind Hi-Wind Taupunkt THW Index Wind Chill Heat Index Solar- strahlung Regen

00:00

8.2 C

1007.1 hpa

88 %

12.9 km/h aus 118

19.3 km/h aus S

6.4 C

6.0 C

5.9 C

8.3 C

0 W/m

0.00 mm

00:05

8.2 C

1007.1 hpa

89 %

11.3 km/h aus 115

20.9 km/h aus SSE

6.5 C

6.4 C

6.3 C

8.3 C

0 W/m

0.00 mm

00:10

8.2 C

1007.1 hpa

89 %

11.3 km/h aus 117

20.9 km/h aus S

6.5 C

6.4 C

6.3 C

8.3 C

0 W/m

0.00 mm

00:15

8.2 C

1007.2 hpa

89 %

12.9 km/h aus 117

22.5 km/h aus S

6.5 C

6.0 C

5.9 C

8.3 C

0 W/m

0.00 mm

00:20

8.3 C

1007.2 hpa

89 %

12.9 km/h aus 117

20.9 km/h aus S

6.6 C

6.1 C

6.0 C

8.4 C

0 W/m

0.00 mm

00:25

8.2 C

1007.2 hpa

89 %

12.9 km/h aus 117

25.7 km/h aus S

6.5 C

6.0 C

5.9 C

8.3 C

0 W/m

0.00 mm

00:30

8.3 C

1007.5 hpa

89 %

11.3 km/h aus 117

17.7 km/h aus S

6.6 C

6.5 C

6.4 C

8.4 C

0 W/m

0.00 mm

00:35

8.3 C

1007.5 hpa

89 %

11.3 km/h aus 116

22.5 km/h aus SSE

6.6 C

6.5 C

6.4 C

8.4 C

0 W/m

0.00 mm

00:40

8.3 C

1007.5 hpa

89 %

12.9 km/h aus 117

19.3 km/h aus S

6.6 C

6.2 C

6.1 C

8.4 C

0 W/m

0.00 mm

00:45

8.3 C

1007.7 hpa

89 %

16.1 km/h aus 116

22.5 km/h aus S

6.6 C

5.6 C

5.4 C

8.4 C

0 W/m

0.00 mm

00:50

8.3 C

1007.7 hpa

89 %

14.5 km/h aus 116

20.9 km/h aus S

6.6 C

5.8 C

5.7 C

8.4 C

0 W/m

0.00 mm

00:55

8.3 C

1007.7 hpa

89 %

12.9 km/h aus 116

20.9 km/h aus SSE

6.6 C

6.2 C

6.1 C

8.4 C

0 W/m

0.00 mm

01:00

8.3 C

1007.7 hpa

89 %

12.9 km/h aus 117

17.7 km/h aus S

6.6 C

6.2 C

6.1 C

8.4 C

0 W/m

0.00 mm

01:05

8.3 C

1007.7 hpa

89 %

12.9 km/h aus 117

19.3 km/h aus SSE

6.6 C

6.2 C

6.1 C

8.4 C

0 W/m

0.00 mm

01:10

8.3 C

1007.7 hpa

89 %

9.7 km/h aus 116

19.3 km/h aus S

6.6 C

6.8 C

6.7 C

8.4 C

0 W/m

0.00 mm

01:15

8.3 C

1007.7 hpa

89 %

12.9 km/h aus 116

22.5 km/h aus S

6.6 C

6.1 C

6.0 C

8.4 C

0 W/m

0.00 mm

01:20

8.3 C

1007.7 hpa

89 %

9.7 km/h aus 117

17.7 km/h aus S

6.6 C

6.8 C

6.7 C

8.4 C

0 W/m

0.00 mm

01:25

8.3 C

1007.7 hpa

89 %

12.9 km/h aus 117

19.3 km/h aus S

6.6 C

6.1 C

6.0 C

8.4 C

0 W/m

0.00 mm

01:30

8.2 C

1007.7 hpa

89 %

9.7 km/h aus 117

17.7 km/h aus S

6.5 C

6.7 C

6.6 C

8.3 C

0 W/m

0.00 mm

01:35

8.2 C

1007.7 hpa

89 %

8.0 km/h aus 117

14.5 km/h aus S

6.5 C

7.0 C

6.9 C

8.3 C

0 W/m

0.00 mm

01:40

8.2 C

1007.7 hpa

89 %

8.0 km/h aus 117

16.1 km/h aus S

6.5 C

6.9 C

6.8 C

8.2 C

0 W/m

0.00 mm

01:45

8.1 C

1007.7 hpa

89 %

8.0 km/h aus 116

12.9 km/h aus S

6.4 C

6.8 C

6.8 C

8.2 C

0 W/m

0.00 mm

01:50

8.1 C

1007.7 hpa

89 %

8.0 km/h aus 116

20.9 km/h aus S

6.4 C

6.8 C

6.7 C

8.1 C

0 W/m

0.00 mm

01:55

8.0 C

1007.7 hpa

89 %

4.8 km/h aus 117

11.3 km/h aus S

6.3 C

7.6 C

7.6 C

8.1 C

0 W/m

0.00 mm

02:00

8.0 C

1007.7 hpa

89 %

6.4 km/h aus 117

14.5 km/h aus S

6.3 C

7.1 C

7.1 C

8.1 C

0 W/m

0.00 mm

02:05

8.0 C

1007.7 hpa

89 %

4.8 km/h aus 117

11.3 km/h aus S

6.3 C

7.6 C

7.6 C

8.1 C

0 W/m

0.00 mm

02:10

7.9 C

1007.7 hpa

89 %

6.4 km/h aus 117

11.3 km/h aus S

6.2 C

7.1 C

7.0 C

8.0 C

0 W/m

0.00 mm

02:15

7.9 C

1007.8 hpa

89 %

3.2 km/h aus 117

8.0 km/h aus S

6.2 C

7.9 C

7.9 C

7.9 C

0 W/m

0.00 mm

02:20

7.9 C

1007.8 hpa

89 %

4.8 km/h aus 117

9.7 km/h aus S

6.2 C

7.5 C

7.4 C

7.9 C

0 W/m

0.00 mm

02:25

7.8 C

1007.8 hpa

89 %

3.2 km/h aus 116

8.0 km/h aus S

6.1 C

7.9 C

7.8 C

7.9 C

0 W/m

0.00 mm

02:30

7.8 C

1007.9 hpa

89 %

4.8 km/h aus 117

9.7 km/h aus S

6.1 C

7.4 C

7.3 C

7.8 C

0 W/m

0.00 mm

02:35

7.7 C

1007.9 hpa

89 %

3.2 km/h aus 118

6.4 km/h aus S

6.0 C

7.8 C

7.7 C

7.8 C

0 W/m

0.00 mm

02:40

7.7 C

1007.9 hpa

89 %

4.8 km/h aus 117

9.7 km/h aus SSE

6.0 C

7.3 C

7.2 C

7.7 C

0 W/m

0.00 mm

02:45

7.6 C

1008.0 hpa

89 %

6.4 km/h aus 117

11.3 km/h aus SSE

5.9 C

6.7 C

6.6 C

7.7 C

0 W/m

0.00 mm

02:50

7.6 C

1008.0 hpa

89 %

4.8 km/h aus 117

11.3 km/h aus S

5.9 C

7.1 C

7.1 C

7.6 C

0 W/m

0.00 mm

02:55

7.6 C

1008.0 hpa

89 %

4.8 km/h aus 116

14.5 km/h aus S

5.9 C

7.1 C

7.1 C

7.6 C

0 W/m

0.00 mm

03:00

7.6 C

1008.1 hpa

90 %

4.8 km/h aus 117

9.7 km/h aus S

6.0 C

7.1 C

7.1 C

7.6 C

0 W/m

0.00 mm

03:05

7.5 C

1008.1 hpa

90 %

6.4 km/h aus 117

11.3 km/h aus S

6.0 C

6.6 C

6.5 C

7.6 C

0 W/m

0.00 mm

03:10

7.5 C

1008.1 hpa

90 %

6.4 km/h aus 117

16.1 km/h aus S

6.0 C

6.6 C

6.5 C

7.6 C

0 W/m

0.00 mm

03:15

7.5 C

1008.2 hpa

90 %

6.4 km/h aus 117

11.3 km/h aus SSE

6.0 C

6.6 C

6.5 C

7.6 C

0 W/m

0.00 mm

03:20

7.5 C

1008.2 hpa

90 %

3.2 km/h aus 117

9.7 km/h aus S

6.0 C

7.6 C

7.5 C

7.6 C

0 W/m

0.00 mm

03:25

7.5 C

1008.2 hpa

90 %

4.8 km/h aus 116

11.3 km/h aus SSW

6.0 C

7.1 C

7.0 C

7.6 C

0 W/m

0.00 mm

03:30

7.6 C

1008.3 hpa

90 %

6.4 km/h aus 117

16.1 km/h aus S

6.0 C

6.6 C

6.6 C

7.6 C

0 W/m

0.00 mm

03:35

7.7 C

1008.3 hpa

90 %

9.7 km/h aus 118

19.3 km/h aus SSW

6.1 C

6.0 C

5.9 C

7.7 C

0 W/m

0.00 mm

03:40

7.7 C

1008.3 hpa

90 %

11.3 km/h aus 117

17.7 km/h aus S

6.1 C

5.7 C

5.7 C

7.7 C

0 W/m

0.00 mm

03:45

7.8 C

1008.5 hpa

90 %

12.9 km/h aus 117

24.1 km/h aus S

6.2 C

5.5 C

5.4 C

7.8 C

0 W/m

0.00 mm

03:50

7.8 C

1008.5 hpa

90 %

12.9 km/h aus 117

20.9 km/h aus S

6.3 C

5.6 C

5.5 C

7.9 C

0 W/m

0.00 mm

03:55

7.9 C

1008.5 hpa

90 %

12.9 km/h aus 117

19.3 km/h aus SSW

6.3 C

5.6 C

5.6 C

7.9 C

0 W/m

0.00 mm

04:00

7.9 C

1008.6 hpa

91 %

11.3 km/h aus 117

17.7 km/h aus S

6.6 C

6.1 C

6.0 C

8.1 C

0 W/m

0.00 mm

04:05

8.0 C

1008.6 hpa

90 %

8.0 km/h aus 116

17.7 km/h aus S

6.5 C

6.7 C

6.7 C

8.1 C

0 W/m

0.00 mm

04:10

8.0 C

1008.6 hpa

91 %

8.0 km/h aus 117

16.1 km/h aus SSE

6.6 C

6.8 C

6.7 C

8.1 C

0 W/m

0.00 mm

04:15

8.1 C

1008.7 hpa

91 %

6.4 km/h aus 117

16.1 km/h aus SSW

6.7 C

7.2 C

7.1 C

8.2 C

0 W/m

0.00 mm

04:20

8.0 C

1008.7 hpa

91 %

4.8 km/h aus 117

11.3 km/h aus SSW

6.6 C

7.7 C

7.6 C

8.1 C

0 W/m

0.00 mm

04:25

8.0 C

1008.7 hpa

90 %

6.4 km/h aus 117

14.5 km/h aus SSE

6.5 C

7.1 C

7.1 C

8.1 C

0 W/m

0.00 mm

04:30

7.9 C

1008.8 hpa

90 %

9.7 km/h aus 117

17.7 km/h aus S

6.4 C

6.3 C

6.3 C

8.0 C

0 W/m

0.00 mm

04:35

7.9 C

1008.8 hpa

90 %

6.4 km/h aus 117

14.5 km/h aus S

6.4 C

7.1 C

7.0 C

8.0 C

0 W/m

0.00 mm

04:40

7.8 C

1008.8 hpa

90 %

4.8 km/h aus 118

6.4 km/h aus S

6.3 C

7.4 C

7.4 C

7.9 C

0 W/m

0.00 mm

04:45

7.8 C

1008.8 hpa

90 %

3.2 km/h aus 116

6.4 km/h aus S

6.2 C

7.8 C

7.8 C

7.8 C

0 W/m

0.00 mm

04:50

7.7 C

1008.8 hpa

90 %

1.6 km/h aus 117

4.8 km/h aus S

6.2 C

7.8 C

7.7 C

7.8 C

0 W/m

0.00 mm

04:55

7.6 C

1008.8 hpa

90 %

0.0 km/h aus 117

4.8 km/h aus S

6.1 C

7.7 C

7.6 C

7.7 C

0 W/m

0.00 mm

05:00

7.5 C

1008.7 hpa

90 %

3.2 km/h aus 117

6.4 km/h aus S

6.0 C

7.6 C

7.5 C

7.6 C

0 W/m

0.00 mm

05:05

7.4 C

1008.7 hpa

90 %

1.6 km/h aus 117

6.4 km/h aus S

5.9 C

7.4 C

7.4 C

7.4 C

0 W/m

0.00 mm

05:10

7.3 C

1008.7 hpa

90 %

0.0 km/h aus 117

3.2 km/h aus S

5.7 C

7.3 C

7.3 C

7.3 C

0 W/m

0.00 mm

05:15

7.2 C

1008.3 hpa

90 %

3.2 km/h aus 117

9.7 km/h aus SE

5.7 C

7.3 C

7.2 C

7.3 C

0 W/m

0.00 mm

05:20

7.2 C

1008.3 hpa

90 %

3.2 km/h aus 117

6.4 km/h aus SE

5.6 C

7.2 C

7.2 C

7.2 C

0 W/m

0.00 mm

05:25

7.0 C

1008.3 hpa

90 %

3.2 km/h aus 117

6.4 km/h aus SE

5.5 C

7.1 C

7.0 C

7.1 C

0 W/m

0.00 mm

05:30

6.9 C

1008.1 hpa

90 %

4.8 km/h aus 117

14.5 km/h aus SE

5.4 C

6.4 C

6.4 C

7.0 C

0 W/m

0.00 mm

05:35

6.9 C

1008.1 hpa

90 %

4.8 km/h aus 117

9.7 km/h aus SE

5.4 C

6.3 C

6.3 C

6.9 C

0 W/m

0.00 mm

05:40

6.8 C

1008.1 hpa

90 %

4.8 km/h aus 116

8.0 km/h aus ESE

5.3 C

6.3 C

6.2 C

6.9 C

0 W/m

0.00 mm

05:45

6.8 C

1008.1 hpa

90 %

6.4 km/h aus 118

12.9 km/h aus ESE

5.3 C

5.8 C

5.7 C

6.9 C

0 W/m

0.00 mm

05:50

6.8 C

1008.1 hpa

90 %

3.2 km/h aus 117

8.0 km/h aus SE

5.3 C

6.8 C

6.8 C

6.8 C

0 W/m

0.00 mm

05:55

6.8 C

1008.1 hpa

90 %

3.2 km/h aus 116

9.7 km/h aus SE

5.3 C

6.8 C

6.8 C

6.8 C

0 W/m

0.00 mm

06:00

6.8 C

1008.2 hpa

90 %

4.8 km/h aus 117

9.7 km/h aus SE

5.3 C

6.2 C

6.2 C

6.8 C

0 W/m

0.00 mm

06:05

6.7 C

1008.2 hpa

90 %

9.7 km/h aus 114

16.1 km/h aus SSE

5.2 C

4.8 C

4.8 C

6.8 C

0 W/m

0.00 mm

06:10

6.7 C

1008.2 hpa

90 %

12.9 km/h aus 117

19.3 km/h aus SSE

5.2 C

4.2 C

4.2 C

6.8 C

0 W/m

0.00 mm

06:15

6.8 C

1008.2 hpa

90 %

14.5 km/h aus 117

20.9 km/h aus SSE

5.3 C

3.9 C

3.9 C

6.8 C

0 W/m

0.00 mm

06:20

6.8 C

1008.2 hpa

90 %

14.5 km/h aus 117

22.5 km/h aus SE

5.3 C

4.1 C

4.0 C

6.9 C

0 W/m

0.00 mm

06:25

6.9 C

1008.2 hpa

91 %

14.5 km/h aus 117

20.9 km/h aus SE

5.5 C

4.1 C

4.1 C

6.9 C

0 W/m

0.00 mm

06:30

6.9 C

1008.1 hpa

91 %

9.7 km/h aus 116

19.3 km/h aus SSE

5.5 C

5.1 C

5.0 C

6.9 C

0 W/m

0.00 mm

06:35

6.9 C

1008.1 hpa

91 %

11.3 km/h aus 117

19.3 km/h aus SSE

5.5 C

4.8 C

4.7 C

6.9 C

0 W/m

0.00 mm

06:40

6.8 C

1008.1 hpa

90 %

11.3 km/h aus 117

17.7 km/h aus SE

5.3 C

4.7 C

4.7 C

6.9 C

0 W/m

0.00 mm

06:45

6.8 C

1007.8 hpa

90 %

11.3 km/h aus 117

17.7 km/h aus ESE

5.3 C

4.6 C

4.6 C

6.8 C

0 W/m

0.00 mm

06:50

6.8 C

1007.8 hpa

91 %

12.9 km/h aus 116

22.5 km/h aus SE

5.4 C

4.3 C

4.2 C

6.8 C

0 W/m

0.00 mm

06:55

6.7 C

1007.8 hpa

91 %

12.9 km/h aus 117

20.9 km/h aus SSE

5.4 C

4.2 C

4.2 C

6.8 C

0 W/m

0.00 mm

07:00

6.7 C

1007.5 hpa

91 %

11.3 km/h aus 117

20.9 km/h aus SE

5.4 C

4.6 C

4.5 C

6.8 C

0 W/m

0.00 mm

07:05

6.7 C

1007.5 hpa

91 %

11.3 km/h aus 117

22.5 km/h aus ESE

5.4 C

4.6 C

4.5 C

6.8 C

0 W/m

0.00 mm

07:10

6.7 C

1007.5 hpa

91 %

14.5 km/h aus 117

27.4 km/h aus SE

5.3 C

3.8 C

3.8 C

6.7 C

0 W/m

0.00 mm

07:15

6.7 C

1007.2 hpa

91 %

16.1 km/h aus 117

25.7 km/h aus SE

5.4 C

3.6 C

3.6 C

6.8 C

0 W/m

0.00 mm

07:20

6.8 C

1007.2 hpa

91 %

16.1 km/h aus 116

29.0 km/h aus SE

5.4 C

3.7 C

3.6 C

6.8 C

0 W/m

0.00 mm

07:25

6.8 C

1007.2 hpa

91 %

16.1 km/h aus 117

29.0 km/h aus SE

5.5 C

3.8 C

3.7 C

6.9 C

0 W/m

0.00 mm

07:30

6.8 C

1007.3 hpa

91 %

16.1 km/h aus 117

27.4 km/h aus ESE

5.5 C

3.8 C

3.7 C

6.9 C

0 W/m

0.00 mm

07:35

6.9 C

1007.3 hpa

91 %

16.1 km/h aus 116

27.4 km/h aus SE

5.5 C

3.8 C

3.8 C

6.9 C

0 W/m

0.00 mm

07:40

6.9 C

1007.3 hpa

91 %

14.5 km/h aus 116

27.4 km/h aus SE

5.6 C

4.2 C

4.1 C

7.0 C

0 W/m

0.00 mm

07:45

6.9 C

1007.3 hpa

91 %

12.9 km/h aus 116

27.4 km/h aus E

5.6 C

4.5 C

4.4 C

7.0 C

0 W/m

0.00 mm

07:50

7.0 C

1007.3 hpa

91 %

14.5 km/h aus 117

30.6 km/h aus SSE

5.6 C

4.2 C

4.2 C

7.1 C

0 W/m

0.00 mm

07:55

7.1 C

1007.3 hpa

91 %

12.9 km/h aus 116

24.1 km/h aus ESE

5.7 C

4.6 C

4.6 C

7.1 C

0 W/m

0.00 mm

08:00

7.1 C

1007.2 hpa

91 %

14.5 km/h aus 117

24.1 km/h aus SE

5.7 C

4.3 C

4.2 C

7.1 C

0 W/m

0.00 mm

08:05

7.1 C

1007.2 hpa

91 %

14.5 km/h aus 117

24.1 km/h aus ESE

5.7 C

4.4 C

4.3 C

7.2 C

0 W/m

0.00 mm

08:10

7.1 C

1007.2 hpa

91 %

12.9 km/h aus 116

20.9 km/h aus SE

5.7 C

4.7 C

4.7 C

7.2 C

0 W/m

0.00 mm

08:15

7.2 C

1007.7 hpa

91 %

19.3 km/h aus 117

30.6 km/h aus SE

5.8 C

3.7 C

3.6 C

7.2 C

0 W/m

0.00 mm

08:20

7.2 C

1007.7 hpa

91 %

16.1 km/h aus 117

22.5 km/h aus SSE

5.9 C

4.2 C

4.2 C

7.3 C

0 W/m

0.00 mm

08:25

7.2 C

1007.7 hpa

91 %

12.9 km/h aus 116

20.9 km/h aus SSE

5.9 C

4.8 C

4.8 C

7.3 C

0 W/m

0.00 mm

08:30

7.2 C

1007.7 hpa

91 %

11.3 km/h aus 117

19.3 km/h aus SE

5.9 C

5.2 C

5.1 C

7.3 C

0 W/m

0.00 mm

08:35

7.3 C

1007.7 hpa

91 %

9.7 km/h aus 117

16.1 km/h aus SE

6.0 C

5.6 C

5.5 C

7.4 C

0 W/m

0.00 mm

08:40

7.4 C

1007.7 hpa

91 %

6.4 km/h aus 117

11.3 km/h aus SE

6.0 C

6.4 C

6.3 C

7.4 C

0 W/m

0.00 mm

08:45

7.4 C

1007.7 hpa

91 %

6.4 km/h aus 117

16.1 km/h aus SE

6.1 C

6.4 C

6.4 C

7.5 C

0 W/m

0.00 mm

08:50

7.6 C

1007.7 hpa

91 %

12.9 km/h aus 117

20.9 km/h aus SE

6.2 C

5.2 C

5.2 C

7.6 C

0 W/m

0.00 mm

08:55

7.7 C

1007.7 hpa

91 %

12.9 km/h aus 117

22.5 km/h aus SSE

6.3 C

5.4 C

5.3 C

7.7 C

0 W/m

0.00 mm

09:00

7.8 C

1007.4 hpa

91 %

12.9 km/h aus 116

25.7 km/h aus S

6.5 C

5.6 C

5.5 C

7.9 C

0 W/m

0.00 mm

09:05

8.1 C

1007.4 hpa

91 %

11.3 km/h aus 117

20.9 km/h aus SE

6.7 C

6.2 C

6.1 C

8.2 C

0 W/m

0.00 mm

09:10

8.2 C

1007.4 hpa

91 %

12.9 km/h aus 117

19.3 km/h aus ESE

6.8 C

6.1 C

5.9 C

8.3 C

0 W/m

0.00 mm

09:15

8.4 C

1007.4 hpa

91 %

16.1 km/h aus 116

25.7 km/h aus E

7.0 C

5.6 C

5.5 C

8.5 C

0 W/m

0.00 mm

09:20

8.6 C

1007.4 hpa

91 %

14.5 km/h aus 117

24.1 km/h aus ESE

7.2 C

6.1 C

6.0 C

8.7 C

0 W/m

0.00 mm

09:25

8.7 C

1007.4 hpa

90 %

16.1 km/h aus 116

27.4 km/h aus SE

7.1 C

5.9 C

5.8 C

8.8 C

0 W/m

0.00 mm

09:30

8.8 C

1007.2 hpa

90 %

16.1 km/h aus 117

30.6 km/h aus SSE

7.2 C

6.1 C

6.0 C

8.9 C

0 W/m

0.00 mm

09:35

8.9 C

1007.2 hpa

90 %

17.7 km/h aus 117

27.4 km/h aus ESE

7.3 C

5.9 C

5.8 C

9.0 C

0 W/m

0.00 mm

09:40

9.1 C

1007.2 hpa

90 %

17.7 km/h aus 117

30.6 km/h aus E

7.5 C

6.1 C

6.0 C

9.2 C

0 W/m

0.00 mm

09:45

9.2 C

1007.2 hpa

89 %

19.3 km/h aus 117

30.6 km/h aus SE

7.4 C

6.0 C

5.9 C

9.3 C

0 W/m

0.00 mm

09:50

9.3 C

1007.2 hpa

88 %

19.3 km/h aus 116

33.8 km/h aus SE

7.4 C

6.1 C

6.0 C

9.4 C

0 W/m

0.00 mm

09:55

9.4 C

1007.2 hpa

88 %

17.7 km/h aus 116

29.0 km/h aus SE

7.5 C

6.5 C

6.4 C

9.5 C

0 W/m

0.00 mm

10:00

9.6 C

1007.0 hpa

88 %

19.3 km/h aus 118

38.6 km/h aus SE

7.7 C

6.4 C

6.3 C

9.7 C

0 W/m

0.00 mm

10:05

9.7 C

1007.0 hpa

87 %

16.1 km/h aus 117

27.4 km/h aus SSE

7.6 C

7.1 C

7.0 C

9.8 C

0 W/m

0.00 mm

10:10

9.8 C

1007.0 hpa

87 %

20.9 km/h aus 117

32.2 km/h aus SE

7.7 C

6.4 C

6.3 C

9.9 C

0 W/m

0.00 mm

10:10

9.8 C

1007.0 hpa

87 %

20.9 km/h aus 117

32.2 km/h aus SE

7.7 C

6.4 C

6.3 C

9.9 C

0 W/m

0.00 mm

10:15

9.8 C

1006.7 hpa

86 %

17.7 km/h aus 117

32.2 km/h aus SE

7.6 C

6.9 C

6.9 C

9.9 C

0 W/m

0.00 mm

10:15

9.8 C

1006.7 hpa

86 %

17.7 km/h aus 117

32.2 km/h aus SE

7.6 C

6.9 C

6.9 C

9.9 C

0 W/m

0.00 mm

10:20

9.8 C

1006.7 hpa

86 %

17.7 km/h aus 116

33.8 km/h aus SE

7.6 C

6.9 C

6.9 C

9.9 C

0 W/m

0.00 mm

10:20

9.8 C

1006.7 hpa

86 %

17.7 km/h aus 116

33.8 km/h aus SE

7.6 C

6.9 C

6.9 C

9.9 C

0 W/m

0.00 mm

10:25

9.9 C

1006.7 hpa

85 %

16.1 km/h aus 117

29.0 km/h aus SSE

7.5 C

7.3 C

7.3 C

9.9 C

0 W/m

0.00 mm

10:25

9.9 C

1006.7 hpa

85 %

16.1 km/h aus 117

29.0 km/h aus SSE

7.5 C

7.3 C

7.3 C

9.9 C

0 W/m

0.00 mm

10:30

9.9 C

1006.8 hpa

85 %

11.3 km/h aus 117

22.5 km/h aus SE

7.5 C

8.4 C

8.4 C

10.0 C

0 W/m

0.00 mm

10:30

9.9 C

1006.8 hpa

85 %

11.3 km/h aus 117

22.5 km/h aus SE

7.5 C

8.4 C

8.4 C

10.0 C

0 W/m

0.00 mm

10:35

9.9 C

1006.8 hpa

85 %

8.0 km/h aus 117

19.3 km/h aus SE

7.5 C

9.0 C

8.9 C

10.0 C

0 W/m

0.00 mm

10:40

9.9 C

1006.8 hpa

85 %

12.9 km/h aus 117

27.4 km/h aus SE

7.5 C

8.1 C

8.0 C

10.0 C

0 W/m

0.00 mm

10:45

10.0 C

1006.7 hpa

84 %

12.9 km/h aus 117

24.1 km/h aus SE

7.4 C

8.1 C

8.1 C

10.1 C

0 W/m

0.00 mm

10:50

10.1 C

1006.7 hpa

84 %

12.9 km/h aus 117

22.5 km/h aus SE

7.5 C

8.2 C

8.1 C

10.1 C

0 W/m

0.00 mm

10:55

10.1 C

1006.7 hpa

84 %

12.9 km/h aus 117

22.5 km/h aus SSE

7.5 C

8.2 C

8.2 C

10.2 C

0 W/m

0.00 mm

11:00

10.2 C

1006.6 hpa

84 %

9.7 km/h aus 117

25.7 km/h aus ESE

7.6 C

8.9 C

8.9 C

10.2 C

0 W/m

0.00 mm

11:05

10.2 C

1006.6 hpa

84 %

6.4 km/h aus 117

16.1 km/h aus SSE

7.6 C

9.6 C

9.6 C

10.2 C

0 W/m

0.00 mm

11:10

10.3 C

1006.6 hpa

84 %

11.3 km/h aus 117

19.3 km/h aus SE

7.7 C

8.8 C

8.8 C

10.3 C

0 W/m

0.00 mm

11:15

10.4 C

1006.6 hpa

84 %

12.9 km/h aus 117

25.7 km/h aus SE

7.8 C

8.5 C

8.5 C

10.4 C

0 W/m

0.00 mm

11:20

10.5 C

1006.6 hpa

84 %

8.0 km/h aus 116

17.7 km/h aus E

7.9 C

9.6 C

9.6 C

10.5 C

0 W/m

0.00 mm

11:25

10.6 C

1006.6 hpa

84 %

4.8 km/h aus 116

9.7 km/h aus SE

8.0 C

10.4 C

10.4 C

10.6 C

0 W/m

0.00 mm

11:30

10.6 C

1006.6 hpa

84 %

4.8 km/h aus 115

11.3 km/h aus ESE

8.0 C

10.4 C

10.4 C

10.6 C

0 W/m

0.00 mm

11:35

10.6 C

1006.6 hpa

83 %

4.8 km/h aus 117

11.3 km/h aus ESE

7.8 C

10.5 C

10.5 C

10.6 C

0 W/m

0.00 mm

11:40

10.7 C

1006.6 hpa

83 %

8.0 km/h aus 117

16.1 km/h aus SE

7.9 C

9.8 C

9.8 C

10.7 C

0 W/m

0.00 mm

11:45

10.7 C

1006.5 hpa

83 %

4.8 km/h aus 117

11.3 km/h aus SE

8.0 C

10.6 C

10.6 C

10.7 C

0 W/m

0.00 mm

11:50

10.8 C

1006.5 hpa

84 %

9.7 km/h aus 117

20.9 km/h aus SE

8.2 C

9.7 C

9.7 C

10.8 C

0 W/m

0.00 mm

11:55

11.0 C

1006.5 hpa

84 %

16.1 km/h aus 116

29.0 km/h aus SSE

8.4 C

8.6 C

8.6 C

11.0 C

0 W/m

0.00 mm

12:00

11.3 C

1006.6 hpa

84 %

14.5 km/h aus 117

30.6 km/h aus SSE

8.7 C

9.2 C

9.2 C

11.2 C

0 W/m

0.00 mm

12:05

11.4 C

1006.6 hpa

83 %

22.5 km/h aus 118

33.8 km/h aus SE

8.6 C

7.9 C

7.9 C

11.3 C

0 W/m

0.00 mm

12:10

11.5 C

1006.6 hpa

83 %

17.7 km/h aus 116

27.4 km/h aus SSE

8.7 C

8.8 C

8.8 C

11.4 C

0 W/m

0.00 mm

12:15

11.7 C

1006.5 hpa

83 %

17.7 km/h aus 117

30.6 km/h aus SSE

8.9 C

8.9 C

9.0 C

11.6 C

0 W/m

0.00 mm

12:20

11.8 C

1006.5 hpa

82 %

20.9 km/h aus 117

33.8 km/h aus SSE

8.8 C

8.5 C

8.6 C

11.7 C

0 W/m

0.00 mm

12:25

11.9 C

1006.5 hpa

82 %

20.9 km/h aus 117

33.8 km/h aus SE

8.9 C

8.6 C

8.7 C

11.8 C

0 W/m

0.00 mm

12:30

11.9 C

1006.1 hpa

82 %

22.5 km/h aus 116

32.2 km/h aus SSE

9.0 C

8.5 C

8.6 C

11.8 C

0 W/m

0.00 mm

12:35

11.9 C

1006.1 hpa

82 %

20.9 km/h aus 117

32.2 km/h aus SSE

9.0 C

8.7 C

8.8 C

11.8 C

0 W/m

0.00 mm

12:40

12.0 C

1006.1 hpa

82 %

12.9 km/h aus 116

24.1 km/h aus ESE

9.0 C

10.3 C

10.4 C

11.9 C

0 W/m

0.00 mm

12:45

12.0 C

1006.1 hpa

81 %

14.5 km/h aus 116

24.1 km/h aus SSE

8.8 C

9.9 C

10.1 C

11.8 C

0 W/m

0.00 mm

12:50

12.0 C

1006.1 hpa

82 %

16.1 km/h aus 116

27.4 km/h aus SSE

9.0 C

9.6 C

9.7 C

11.9 C

0 W/m

0.00 mm

12:55

12.0 C

1006.1 hpa

81 %

16.1 km/h aus 117

25.7 km/h aus SE

8.8 C

9.6 C

9.7 C

11.8 C

0 W/m

0.00 mm

13:00

12.0 C

1005.9 hpa

82 %

14.5 km/h aus 116

33.8 km/h aus SSE

9.0 C

9.9 C

10.1 C

11.9 C

0 W/m

0.00 mm

13:05

11.8 C

1005.9 hpa

83 %

14.5 km/h aus 117

27.4 km/h aus SSE

9.0 C

9.8 C

9.9 C

11.7 C

0 W/m

0.25 mm

13:10

11.7 C

1005.9 hpa

85 %

11.3 km/h aus 117

25.7 km/h aus ESE

9.3 C

10.4 C

10.5 C

11.7 C

0 W/m

0.00 mm

13:15

11.8 C

1005.6 hpa

86 %

9.7 km/h aus 117

17.7 km/h aus E

9.6 C

10.8 C

10.9 C

11.8 C

0 W/m

0.00 mm

13:20

12.0 C

1005.6 hpa

86 %

6.4 km/h aus 116

11.3 km/h aus ESE

9.7 C

11.6 C

11.7 C

11.9 C

0 W/m

0.00 mm

13:25

12.2 C

1005.6 hpa

85 %

9.7 km/h aus 117

24.1 km/h aus E

9.8 C

11.3 C

11.3 C

12.2 C

0 W/m

0.00 mm

13:30

12.4 C

1005.5 hpa

85 %

8.0 km/h aus 117

16.1 km/h aus ESE

10.0 C

11.8 C

11.9 C

12.4 C

0 W/m

0.00 mm

13:35

12.7 C

1005.5 hpa

84 %

11.3 km/h aus 116

20.9 km/h aus SE

10.1 C

11.7 C

11.7 C

12.7 C

0 W/m

0.00 mm

13:40

13.1 C

1005.5 hpa

83 %

11.3 km/h aus 117

19.3 km/h aus SE

10.3 C

12.1 C

12.2 C

13.0 C

0 W/m

0.00 mm

13:45

13.4 C

1005.4 hpa

83 %

12.9 km/h aus 117

20.9 km/h aus S

10.6 C

12.1 C

12.2 C

13.3 C

0 W/m

0.00 mm

13:50

13.6 C

1005.4 hpa

82 %

12.9 km/h aus 116

25.7 km/h aus SSE

10.6 C

12.3 C

12.4 C

13.5 C

0 W/m

0.00 mm

13:55

13.6 C

1005.4 hpa

80 %

14.5 km/h aus 117

22.5 km/h aus S

10.2 C

11.8 C

12.0 C

13.4 C

0 W/m

0.00 mm

14:00

13.6 C

1005.3 hpa

80 %

14.5 km/h aus 116

20.9 km/h aus SSE

10.2 C

11.8 C

12.0 C

13.4 C

0 W/m

0.00 mm

14:05

13.6 C

1005.3 hpa

80 %

14.5 km/h aus 114

25.7 km/h aus SSE

10.2 C

11.8 C

12.0 C

13.4 C

0 W/m

0.00 mm

14:10

13.6 C

1005.3 hpa

80 %

14.5 km/h aus 118

25.7 km/h aus SE

10.2 C

11.7 C

11.9 C

13.4 C

0 W/m

0.00 mm

14:15

13.5 C

1005.1 hpa

80 %

14.5 km/h aus 117

27.4 km/h aus SSE

10.1 C

11.7 C

11.8 C

13.3 C

0 W/m

0.00 mm

14:20

13.6 C

1005.1 hpa

81 %

11.3 km/h aus 116

22.5 km/h aus SSE

10.4 C

12.6 C

12.7 C

13.4 C

0 W/m

0.00 mm

14:25

13.5 C

1005.1 hpa

80 %

12.9 km/h aus 116

29.0 km/h aus SE

10.1 C

12.1 C

12.3 C

13.3 C

0 W/m

0.00 mm

14:30

13.6 C

1005.0 hpa

81 %

12.9 km/h aus 117

25.7 km/h aus SE

10.4 C

12.2 C

12.3 C

13.4 C

0 W/m

0.00 mm

14:35

13.5 C

1005.0 hpa

80 %

14.5 km/h aus 117

25.7 km/h aus SSE

10.1 C

11.7 C

11.8 C

13.3 C

0 W/m

0.00 mm

14:40

13.4 C

1005.0 hpa

80 %

14.5 km/h aus 116

25.7 km/h aus SE

10.1 C

11.6 C

11.8 C

13.3 C

0 W/m

0.00 mm

14:45

13.5 C

1005.0 hpa

80 %

17.7 km/h aus 117

29.0 km/h aus ESE

10.1 C

11.0 C

11.2 C

13.3 C

0 W/m

0.00 mm

14:50

13.6 C

1005.0 hpa

80 %

17.7 km/h aus 117

29.0 km/h aus S

10.2 C

11.1 C

11.2 C

13.4 C

0 W/m

0.00 mm

14:55

13.7 C

1005.0 hpa

80 %

19.3 km/h aus 117

32.2 km/h aus SE

10.3 C

10.9 C

11.1 C

13.6 C

0 W/m

0.00 mm

15:00

13.8 C

1004.9 hpa

79 %

19.3 km/h aus 117

32.2 km/h aus SSE

10.3 C

11.1 C

11.2 C

13.7 C

0 W/m

0.00 mm

15:05

13.9 C

1004.9 hpa

80 %

20.9 km/h aus 116

33.8 km/h aus SSE

10.5 C

10.9 C

11.1 C

13.8 C

0 W/m

0.00 mm

15:10

13.9 C

1004.9 hpa

79 %

19.3 km/h aus 117

32.2 km/h aus SSE

10.4 C

11.2 C

11.3 C

13.8 C

0 W/m

0.00 mm

15:15

13.9 C

1004.8 hpa

79 %

20.9 km/h aus 118

30.6 km/h aus SSE

10.4 C

10.9 C

11.1 C

13.8 C

0 W/m

0.00 mm

15:20

13.9 C

1004.8 hpa

79 %

19.3 km/h aus 117

35.4 km/h aus SE

10.4 C

11.2 C

11.3 C

13.8 C

0 W/m

0.00 mm

15:25

13.9 C

1004.8 hpa

79 %

17.7 km/h aus 117

25.7 km/h aus SSE

10.4 C

11.5 C

11.7 C

13.8 C

0 W/m

0.00 mm

15:30

13.9 C

1004.9 hpa

80 %

17.7 km/h aus 117

25.7 km/h aus SE

10.5 C

11.4 C

11.6 C

13.7 C

0 W/m

0.00 mm

15:35

13.9 C

1004.9 hpa

80 %

17.7 km/h aus 115

25.7 km/h aus SE

10.5 C

11.4 C

11.6 C

13.7 C

0 W/m

0.00 mm

15:40

13.9 C

1004.9 hpa

80 %

20.9 km/h aus 117

32.2 km/h aus SE

10.5 C

10.9 C

11.1 C

13.7 C

0 W/m

0.00 mm

15:45

13.8 C

1005.1 hpa

79 %

19.3 km/h aus 116

29.0 km/h aus SSE

10.3 C

11.1 C

11.2 C

13.7 C

0 W/m

0.00 mm

15:50

13.8 C

1005.1 hpa

80 %

16.1 km/h aus 117

25.7 km/h aus SE

10.4 C

11.7 C

11.8 C

13.6 C

0 W/m

0.00 mm

15:55

13.8 C

1005.1 hpa

80 %

17.7 km/h aus 116

25.7 km/h aus SSE

10.4 C

11.3 C

11.5 C

13.6 C

0 W/m

0.00 mm

16:00

13.8 C

1005.1 hpa

80 %

17.7 km/h aus 117

27.4 km/h aus SSE

10.4 C

11.3 C

11.5 C

13.6 C

0 W/m

0.00 mm

16:05

13.8 C

1005.1 hpa

80 %

19.3 km/h aus 116

27.4 km/h aus SE

10.4 C

11.0 C

11.2 C

13.6 C

0 W/m

0.00 mm

16:10

13.8 C

1005.1 hpa

80 %

19.3 km/h aus 116

32.2 km/h aus SSE

10.4 C

11.1 C

11.2 C

13.7 C

0 W/m

0.00 mm

16:15

13.9 C

1005.0 hpa

80 %

19.3 km/h aus 118

29.0 km/h aus SSE

10.5 C

11.1 C

11.3 C

13.7 C

0 W/m

0.00 mm

16:20

13.9 C

1005.0 hpa

80 %

14.5 km/h aus 116

24.1 km/h aus SSE

10.5 C

12.2 C

12.3 C

13.8 C

0 W/m

0.00 mm

16:25

13.9 C

1005.0 hpa

80 %

16.1 km/h aus 117

25.7 km/h aus SSE

10.5 C

11.8 C

12.0 C

13.8 C

0 W/m

0.00 mm

16:30

13.9 C

1005.1 hpa

79 %

17.7 km/h aus 117

27.4 km/h aus SE

10.4 C

11.5 C

11.7 C

13.8 C

0 W/m

0.00 mm

16:35

14.0 C

1005.1 hpa

79 %

17.7 km/h aus 117

27.4 km/h aus SSE

10.4 C

11.6 C

11.7 C

13.8 C

0 W/m

0.00 mm

16:40

14.0 C

1005.1 hpa

79 %

17.7 km/h aus 116

25.7 km/h aus SSE

10.4 C

11.6 C

11.7 C

13.8 C

0 W/m

0.00 mm

16:45

14.1 C

1005.0 hpa

79 %

17.7 km/h aus 117

25.7 km/h aus SSE

10.5 C

11.6 C

11.8 C

13.9 C

0 W/m

0.00 mm

16:50

14.0 C

1005.0 hpa

80 %

19.3 km/h aus 117

29.0 km/h aus SSE

10.6 C

11.2 C

11.4 C

13.8 C

0 W/m

0.00 mm

16:55

14.0 C

1005.0 hpa

80 %

20.9 km/h aus 117

30.6 km/h aus SSE

10.6 C

11.0 C

11.2 C

13.8 C

0 W/m

0.00 mm

17:00

14.0 C

1004.9 hpa

80 %

19.3 km/h aus 116

27.4 km/h aus S

10.6 C

11.2 C

11.4 C

13.8 C

0 W/m

0.00 mm

17:05

14.0 C

1004.9 hpa

80 %

16.1 km/h aus 117

25.7 km/h aus SE

10.6 C

11.9 C

12.1 C

13.8 C

0 W/m

0.00 mm

17:10

13.9 C

1004.9 hpa

80 %

17.7 km/h aus 116

24.1 km/h aus S

10.5 C

11.5 C

11.7 C

13.8 C

0 W/m

0.00 mm

17:15

13.9 C

1005.0 hpa

80 %

16.1 km/h aus 116

22.5 km/h aus S

10.5 C

11.8 C

12.0 C

13.8 C

0 W/m

0.00 mm

17:20

13.9 C

1005.0 hpa

80 %

16.1 km/h aus 118

22.5 km/h aus S

10.5 C

11.8 C

12.0 C

13.8 C

0 W/m

0.00 mm

17:25

13.9 C

1005.0 hpa

80 %

17.7 km/h aus 117

25.7 km/h aus SSE

10.5 C

11.5 C

11.7 C

13.8 C

0 W/m

0.00 mm

17:30

13.9 C

1005.1 hpa

80 %

17.7 km/h aus 117

27.4 km/h aus SSE

10.5 C

11.5 C

11.7 C

13.8 C

0 W/m

0.00 mm

17:35

13.9 C

1005.1 hpa

80 %

19.3 km/h aus 117

27.4 km/h aus SE

10.5 C

11.1 C

11.3 C

13.7 C

0 W/m

0.00 mm

17:40

13.9 C

1005.1 hpa

81 %

17.7 km/h aus 117

27.4 km/h aus SE

10.7 C

11.4 C

11.6 C

13.7 C

0 W/m

0.00 mm

17:45

13.9 C

1005.2 hpa

81 %

19.3 km/h aus 117

32.2 km/h aus SE

10.7 C

11.1 C

11.3 C

13.7 C

0 W/m

0.00 mm

17:50

13.9 C

1005.2 hpa

81 %

20.9 km/h aus 116

27.4 km/h aus S

10.7 C

10.9 C

11.1 C

13.7 C

0 W/m

0.00 mm

17:55

13.9 C

1005.2 hpa

80 %

19.3 km/h aus 117

30.6 km/h aus SSE

10.5 C

11.2 C

11.3 C

13.8 C

0 W/m

0.00 mm

18:00

13.9 C

1005.1 hpa

80 %

19.3 km/h aus 117

29.0 km/h aus SSE

10.5 C

11.2 C

11.3 C

13.8 C

0 W/m

0.00 mm

18:05

13.9 C

1005.1 hpa

80 %

19.3 km/h aus 116

30.6 km/h aus SSE

10.5 C

11.2 C

11.3 C

13.8 C

0 W/m

0.00 mm

18:10

13.9 C

1005.1 hpa

80 %

17.7 km/h aus 116

24.1 km/h aus SSE

10.5 C

11.5 C

11.7 C

13.8 C

0 W/m

0.00 mm

18:15

13.9 C

1005.2 hpa

80 %

17.7 km/h aus 116

27.4 km/h aus SSE

10.5 C

11.5 C

11.7 C

13.8 C

0 W/m

0.00 mm

18:20

13.9 C

1005.2 hpa

80 %

19.3 km/h aus 117

27.4 km/h aus SSE

10.5 C

11.2 C

11.3 C

13.8 C

0 W/m

0.00 mm

18:25

13.9 C

1005.2 hpa

80 %

19.3 km/h aus 117

25.7 km/h aus SE

10.5 C

11.2 C

11.3 C

13.8 C

0 W/m

0.00 mm

18:30

13.9 C

1005.5 hpa

80 %

17.7 km/h aus 116

25.7 km/h aus SSE

10.5 C

11.5 C

11.7 C

13.8 C

0 W/m

0.00 mm

18:35

13.9 C

1005.5 hpa

80 %

19.3 km/h aus 116

25.7 km/h aus SSE

10.5 C

11.2 C

11.3 C

13.8 C

0 W/m

0.00 mm

18:40

13.9 C

1005.5 hpa

80 %

16.1 km/h aus 117

24.1 km/h aus S

10.5 C

11.8 C

12.0 C

13.8 C

0 W/m

0.00 mm

18:45

13.9 C

1005.5 hpa

80 %

12.9 km/h aus 116

20.9 km/h aus SSE

10.5 C

12.6 C

12.8 C

13.8 C

0 W/m

0.00 mm

18:50

13.9 C

1005.5 hpa

80 %

14.5 km/h aus 117

22.5 km/h aus SE

10.5 C

12.1 C

12.3 C

13.7 C

0 W/m

0.00 mm

18:55

13.8 C

1005.5 hpa

80 %

12.9 km/h aus 117

19.3 km/h aus SSE

10.4 C

12.5 C

12.7 C

13.7 C

0 W/m

0.00 mm

19:00

13.8 C

1005.6 hpa

80 %

11.3 km/h aus 117

17.7 km/h aus S

10.4 C

12.9 C

13.1 C

13.7 C

0 W/m

0.00 mm

19:05

13.8 C

1005.6 hpa

81 %

11.3 km/h aus 116

19.3 km/h aus SSE

10.6 C

12.9 C

13.1 C

13.7 C

0 W/m

0.00 mm

19:10

13.8 C

1005.6 hpa

81 %

6.4 km/h aus 116

12.9 km/h aus SSE

10.6 C

13.6 C

13.8 C

13.6 C

0 W/m

0.00 mm

19:15

13.8 C

1005.6 hpa

81 %

8.0 km/h aus 116

14.5 km/h aus SE

10.6 C

13.3 C

13.4 C

13.6 C

0 W/m

0.00 mm

19:20

13.7 C

1005.6 hpa

81 %

8.0 km/h aus 117

19.3 km/h aus SE

10.5 C

13.2 C

13.4 C

13.6 C

0 W/m

0.00 mm

19:25

13.7 C

1005.6 hpa

81 %

12.9 km/h aus 118

20.9 km/h aus SSE

10.5 C

12.3 C

12.4 C

13.5 C

0 W/m

0.00 mm

19:30

13.7 C

1005.8 hpa

81 %

11.3 km/h aus 117

17.7 km/h aus SSE

10.5 C

12.7 C

12.8 C

13.5 C

0 W/m

0.00 mm

19:35

13.6 C

1005.8 hpa

81 %

12.9 km/h aus 115

20.9 km/h aus S

10.4 C

12.2 C

12.4 C

13.4 C

0 W/m

0.00 mm

19:40

13.7 C

1005.8 hpa

81 %

14.5 km/h aus 117

20.9 km/h aus SSE

10.5 C

11.9 C

12.1 C

13.5 C

0 W/m

0.00 mm

19:45

13.6 C

1006.1 hpa

81 %

14.5 km/h aus 116

22.5 km/h aus SSE

10.4 C

11.8 C

12.0 C

13.4 C

0 W/m

0.00 mm

19:50

13.6 C

1006.1 hpa

82 %

16.1 km/h aus 117

20.9 km/h aus SE

10.6 C

11.5 C

11.6 C

13.5 C

0 W/m

0.00 mm

19:55

13.6 C

1006.1 hpa

82 %

16.1 km/h aus 116

22.5 km/h aus SSE

10.6 C

11.5 C

11.6 C

13.5 C

0 W/m

0.00 mm

20:00

13.6 C

1006.1 hpa

82 %

16.1 km/h aus 117

24.1 km/h aus SSE

10.6 C

11.5 C

11.6 C

13.5 C

0 W/m

0.00 mm

20:05

13.6 C

1006.1 hpa

82 %

17.7 km/h aus 117

22.5 km/h aus SSE

10.6 C

11.2 C

11.3 C

13.5 C

0 W/m

0.00 mm

20:10

13.6 C

1006.1 hpa

82 %

17.7 km/h aus 116

25.7 km/h aus S

10.6 C

11.2 C

11.3 C

13.5 C

0 W/m

0.00 mm

20:15

13.7 C

1006.3 hpa

83 %

19.3 km/h aus 117

27.4 km/h aus SE

10.8 C

10.9 C

11.1 C

13.6 C

0 W/m

0.00 mm

20:20

13.7 C

1006.3 hpa

83 %

17.7 km/h aus 116

24.1 km/h aus SSE

10.8 C

11.2 C

11.3 C

13.6 C

0 W/m

0.00 mm

20:25

13.7 C

1006.3 hpa

83 %

17.7 km/h aus 116

24.1 km/h aus SSE

10.8 C

11.2 C

11.3 C

13.6 C

0 W/m

0.00 mm

20:30

13.7 C

1006.5 hpa

83 %

14.5 km/h aus 118

19.3 km/h aus SSE

10.8 C

11.9 C

12.1 C

13.6 C

0 W/m

0.00 mm

20:35

13.7 C

1006.5 hpa

83 %

12.9 km/h aus 117

20.9 km/h aus SSE

10.8 C

12.3 C

12.4 C

13.6 C

0 W/m

0.00 mm

20:40

13.7 C

1006.5 hpa

83 %

12.9 km/h aus 117

19.3 km/h aus SSE

10.8 C

12.3 C

12.4 C

13.6 C

0 W/m

0.00 mm

20:45

13.7 C

1006.6 hpa

83 %

14.5 km/h aus 117

20.9 km/h aus SSE

10.8 C

11.9 C

12.1 C

13.6 C

0 W/m

0.00 mm

20:50

13.7 C

1006.6 hpa

83 %

11.3 km/h aus 117

17.7 km/h aus SSE

10.8 C

12.7 C

12.8 C

13.6 C

0 W/m

0.00 mm

20:55

13.7 C

1006.6 hpa

83 %

14.5 km/h aus 117

19.3 km/h aus SSE

10.8 C

11.9 C

12.1 C

13.6 C

0 W/m

0.00 mm

21:00

13.6 C

1007.1 hpa

83 %

14.5 km/h aus 117

20.9 km/h aus SE

10.8 C

11.9 C

12.0 C

13.5 C

0 W/m

0.00 mm

21:05

13.6 C

1007.1 hpa

83 %

12.9 km/h aus 116

19.3 km/h aus SSE

10.8 C

12.3 C

12.4 C

13.5 C

0 W/m

0.00 mm

21:10

13.6 C

1007.1 hpa

83 %

11.3 km/h aus 117

19.3 km/h aus ESE

10.7 C

12.6 C

12.7 C

13.4 C

0 W/m

0.00 mm

21:15

13.6 C

1006.7 hpa

83 %

12.9 km/h aus 117

19.3 km/h aus ESE

10.7 C

12.2 C

12.3 C

13.4 C

0 W/m

0.00 mm

21:20

13.4 C

1006.7 hpa

83 %

9.7 km/h aus 117

17.7 km/h aus ESE

10.6 C

12.7 C

12.8 C

13.3 C

0 W/m

0.00 mm

21:25

13.4 C

1006.7 hpa

84 %

9.7 km/h aus 117

17.7 km/h aus ESE

10.7 C

12.7 C

12.7 C

13.3 C

0 W/m

0.00 mm

21:30

13.3 C

1006.6 hpa

84 %

9.7 km/h aus 118

17.7 km/h aus ESE

10.6 C

12.6 C

12.6 C

13.2 C

0 W/m

0.00 mm

21:35

13.2 C

1006.6 hpa

84 %

8.0 km/h aus 117

17.7 km/h aus ESE

10.6 C

12.8 C

12.8 C

13.2 C

0 W/m

0.00 mm

21:40

13.2 C

1006.6 hpa

84 %

6.4 km/h aus 117

14.5 km/h aus ESE

10.5 C

12.9 C

13.0 C

13.1 C

0 W/m

0.00 mm

21:45

13.1 C

1006.5 hpa

84 %

4.8 km/h aus 117

8.0 km/h aus ESE

10.5 C

13.1 C

13.1 C

13.1 C

0 W/m

0.00 mm

21:50

13.1 C

1006.5 hpa

84 %

6.4 km/h aus 116

11.3 km/h aus ESE

10.4 C

12.8 C

12.9 C

13.0 C

0 W/m

0.00 mm

21:55

13.0 C

1006.5 hpa

85 %

6.4 km/h aus 117

11.3 km/h aus ESE

10.5 C

12.8 C

12.8 C

12.9 C

0 W/m

0.00 mm

22:00

13.0 C

1006.4 hpa

85 %

4.8 km/h aus 116

11.3 km/h aus ESE

10.5 C

12.9 C

13.0 C

12.9 C

0 W/m

0.00 mm

22:05

12.9 C

1006.4 hpa

85 %

4.8 km/h aus 116

11.3 km/h aus ESE

10.5 C

12.9 C

12.9 C

12.9 C

0 W/m

0.00 mm

22:10

12.9 C

1006.4 hpa

85 %

8.0 km/h aus 117

16.1 km/h aus SE

10.5 C

12.4 C

12.5 C

12.9 C

0 W/m

0.00 mm

22:15

12.9 C

1006.5 hpa

85 %

8.0 km/h aus 117

17.7 km/h aus SE

10.5 C

12.4 C

12.5 C

12.9 C

0 W/m

0.00 mm

22:20

12.9 C

1006.5 hpa

85 %

8.0 km/h aus 117

14.5 km/h aus ESE

10.5 C

12.4 C

12.5 C

12.9 C

0 W/m

0.00 mm

22:25

12.9 C

1006.5 hpa

85 %

9.7 km/h aus 117

17.7 km/h aus ESE

10.5 C

12.2 C

12.2 C

12.9 C

0 W/m

0.00 mm

22:30

12.9 C

1006.5 hpa

85 %

8.0 km/h aus 117

16.1 km/h aus SE

10.5 C

12.4 C

12.5 C

12.9 C

0 W/m

0.00 mm

22:35

12.9 C

1006.5 hpa

85 %

8.0 km/h aus 117

14.5 km/h aus S

10.5 C

12.4 C

12.5 C

12.9 C

0 W/m

0.00 mm

22:40

12.9 C

1006.5 hpa

85 %

9.7 km/h aus 117

19.3 km/h aus SE

10.5 C

12.2 C

12.2 C

12.9 C

0 W/m

0.00 mm

22:45

13.0 C

1006.4 hpa

85 %

9.7 km/h aus 117

16.1 km/h aus SE

10.5 C

12.2 C

12.3 C

12.9 C

0 W/m

0.00 mm

22:50

13.0 C

1006.4 hpa

85 %

9.7 km/h aus 117

19.3 km/h aus SE

10.5 C

12.2 C

12.3 C

12.9 C

0 W/m

0.00 mm

22:55

13.0 C

1006.4 hpa

85 %

11.3 km/h aus 117

22.5 km/h aus SSE

10.5 C

12.0 C

12.1 C

12.9 C

0 W/m

0.00 mm

23:00

13.1 C

1006.4 hpa

85 %

11.3 km/h aus 115

17.7 km/h aus SE

10.6 C

12.1 C

12.1 C

13.0 C

0 W/m

0.00 mm

23:05

13.1 C

1006.4 hpa

85 %

12.9 km/h aus 117

19.3 km/h aus SE

10.6 C

11.7 C

11.7 C

13.0 C

0 W/m

0.00 mm

23:10

13.1 C

1006.4 hpa

85 %

9.7 km/h aus 116

17.7 km/h aus SSE

10.6 C

12.3 C

12.3 C

13.0 C

0 W/m

0.00 mm

23:15

13.1 C

1006.5 hpa

85 %

9.7 km/h aus 117

17.7 km/h aus SE

10.6 C

12.3 C

12.4 C

13.1 C

0 W/m

0.00 mm

23:20

13.1 C

1006.5 hpa

84 %

6.4 km/h aus 116

16.1 km/h aus SE

10.5 C

12.9 C

12.9 C

13.1 C

0 W/m

0.00 mm

23:25

13.1 C

1006.5 hpa

84 %

8.0 km/h aus 117

17.7 km/h aus ESE

10.5 C

12.6 C

12.7 C

13.1 C

0 W/m

0.00 mm

23:30

13.1 C

1006.2 hpa

84 %

9.7 km/h aus 115

17.7 km/h aus ESE

10.5 C

12.3 C

12.4 C

13.1 C

0 W/m

0.00 mm

23:35

13.2 C

1006.2 hpa

84 %

8.0 km/h aus 117

14.5 km/h aus SE

10.5 C

12.7 C

12.7 C

13.1 C

0 W/m

0.00 mm

23:40

13.2 C

1006.2 hpa

84 %

8.0 km/h aus 116

16.1 km/h aus SE

10.5 C

12.7 C

12.7 C

13.1 C

0 W/m

0.00 mm

23:45

13.2 C

1006.6 hpa

84 %

6.4 km/h aus 117

16.1 km/h aus SE

10.5 C

12.9 C

13.0 C

13.1 C

0 W/m

0.00 mm

23:50

13.2 C

1006.6 hpa

84 %

6.4 km/h aus 117

14.5 km/h aus SE

10.5 C

12.9 C

13.0 C

13.1 C

0 W/m

0.00 mm

23:55

13.2 C

1006.6 hpa

84 %

8.0 km/h aus 117

16.1 km/h aus SE

10.5 C

12.7 C

12.7 C

13.1 C

0 W/m

0.00 mm